Weather History for Jesup, GA

Change the Weather History Date:

Monday, August 12, 2013

  Actual Average (KLHW) Record (KLHW)
Temperature  
Mean Temperature 82 °F -  
Max Temperature 95 °F 90 °F 100 °F (1980)
Min Temperature 69 °F 70 °F 60 °F (1977)
Cooling Degree Days 17    
Growing Degree Days 32 (Base 50)    
Moisture  
Dew Point 75 °F    
Average Humidity 83    
Maximum Humidity 100    
Minimum Humidity 49    
Precipitation  
Precipitation 0.00 in - - ()
Sea Level Pressure  
Sea Level Pressure 30.06 in    
Wind  
Wind Speed 2 mph (WNW)    
Max Wind Speed 13 mph    
Max Gust Speed 23 mph    
Visibility 10 miles    
Events Rain , Thunderstorm    
Averages and records for this station are not official NWS values.
T = Trace of Precipitation, MM = Missing Value Source: NWS Daily Summary

Daily Weather History Graph

Daily Weather History Graph

Search for Another Location

Airport:

Trip Planner

Search our weather history database for the weather conditions in past years. The results will help you decide how hot, cold, wet, or windy it might be!

Date:

Astronomy

Aug. 12, 2013 Rise Set
Actual Time 6:50 AM EDT 8:13 PM EDT
Civil Twilight 6:25 AM EDT 8:39 PM EDT
Nautical Twilight 5:54 AM EDT 9:09 PM EDT
Astronomical Twilight 5:22 AM EDT 9:41 PM EDT
Moon 12:14 PM EDT (8/12) 11:33 PM EDT (8/12)
Length of Visible Light 14h 14m
Length of Day
13h 22m
Waxing Crescent, 31% of the Moon is Illuminated
Aug 12
Waxing Crescent
Aug 14
First Quarter
Aug 20
Full
Aug 28
Last Quarter
Sep 5
New

Hourly Weather History & Observations

Time (EDT) Temp. Heat Index Dew Point Humidity Pressure Visibility Wind Dir Wind Speed Gust Speed Precip Events Conditions
3:15 AM 73.4 °F - 73.4 °F 100% 30.09 in 10.0 mi Calm Calm - N/A   Clear
3:35 AM 71.6 °F - 71.6 °F 100% 30.09 in 10.0 mi Calm Calm - N/A   Clear
3:55 AM 71.6 °F - 71.6 °F 100% 30.09 in 10.0 mi Calm Calm - N/A   Clear
4:15 AM 71.6 °F - 71.6 °F 100% 30.09 in 10.0 mi Calm Calm - N/A   Clear
4:35 AM 71.6 °F - 71.6 °F 100% 30.10 in 10.0 mi Calm Calm - N/A   Clear
4:55 AM 71.6 °F - 71.6 °F 100% 30.10 in 10.0 mi Calm Calm - N/A   Clear
5:15 AM 71.6 °F - 71.6 °F 100% 30.10 in 7.0 mi Calm Calm - N/A   Clear
5:35 AM 71.6 °F - 71.6 °F 100% 30.10 in 7.0 mi Calm Calm - N/A   Clear
5:55 AM 71.6 °F - 71.6 °F 100% 30.10 in 7.0 mi Calm Calm - N/A   Clear
6:15 AM 71.6 °F - 71.6 °F 100% 30.11 in 10.0 mi Calm Calm - N/A   Clear
6:35 AM 71.6 °F - 71.6 °F 100% 30.11 in 7.0 mi Calm Calm - N/A   Clear
6:55 AM 69.8 °F - 69.8 °F 100% 30.12 in 5.0 mi Calm Calm - N/A   Clear
7:15 AM 69.8 °F - 69.8 °F 100% 30.12 in 7.0 mi Calm Calm - N/A   Clear
7:35 AM 71.6 °F - 71.6 °F 100% 30.12 in 7.0 mi Calm Calm - N/A   Clear
7:55 AM 73.4 °F - 73.4 °F 100% 30.12 in 10.0 mi Calm Calm - N/A   Clear
8:15 AM 77.0 °F - 75.2 °F 94% 30.12 in 10.0 mi WNW 5.8 mph - N/A   Clear
8:35 AM 78.8 °F - 75.2 °F 89% 30.12 in 10.0 mi WNW 4.6 mph - N/A   Clear
8:55 AM 80.6 °F 87.1 °F 77.0 °F 89% 30.12 in 10.0 mi NW 3.5 mph - N/A   Clear
9:15 AM 82.4 °F 90.9 °F 77.0 °F 84% 30.12 in 10.0 mi NW 3.5 mph - N/A   Clear
9:35 AM 84.2 °F 94.1 °F 77.0 °F 79% 30.11 in 10.0 mi NW 3.5 mph - N/A   Clear
9:55 AM 86.0 °F 96.9 °F 77.0 °F 74% 30.11 in 10.0 mi North 5.8 mph - N/A   Clear
10:15 AM 87.8 °F 99.7 °F 77.0 °F 70% 30.11 in 10.0 mi Calm Calm - N/A   Clear
10:35 AM 87.8 °F 97.6 °F 75.2 °F 66% 30.10 in 10.0 mi NNW 6.9 mph - N/A   Clear
10:55 AM 87.8 °F 97.6 °F 75.2 °F 66% 30.10 in 10.0 mi WNW 4.6 mph - N/A   Clear
11:15 AM 87.8 °F 97.6 °F 75.2 °F 66% 30.10 in 10.0 mi WNW 4.6 mph - N/A   Clear
11:35 AM 89.6 °F 99.8 °F 75.2 °F 62% 30.09 in 10.0 mi NW 5.8 mph - N/A   Clear
11:55 AM 89.6 °F 99.8 °F 75.2 °F 62% 30.09 in 10.0 mi WNW 4.6 mph - N/A   Clear
12:15 PM 89.6 °F 99.8 °F 75.2 °F 62% 30.08 in 10.0 mi WNW 5.8 mph - N/A   Scattered Clouds
12:35 PM 89.6 °F 99.8 °F 75.2 °F 62% 30.08 in 10.0 mi NW 8.1 mph - N/A   Mostly Cloudy
12:55 PM 91.4 °F 105.1 °F 77.0 °F 63% 30.08 in 10.0 mi NW 6.9 mph - N/A   Mostly Cloudy
1:15 PM 91.4 °F 102.5 °F 75.2 °F 59% 30.07 in 10.0 mi WNW 5.8 mph - N/A   Scattered Clouds
1:35 PM 91.4 °F 102.5 °F 75.2 °F 59% 30.07 in 10.0 mi NW 9.2 mph - N/A   Scattered Clouds
1:55 PM 91.4 °F 102.5 °F 75.2 °F 59% 30.06 in 10.0 mi North 6.9 mph - N/A   Mostly Cloudy
2:15 PM 91.4 °F 105.1 °F 77.0 °F 63% 30.06 in 10.0 mi West 4.6 mph - N/A   Mostly Cloudy
2:35 PM 89.6 °F 98.2 °F 73.4 °F 59% 30.05 in 10.0 mi North 6.9 mph - N/A   Mostly Cloudy
2:55 PM 91.4 °F 105.1 °F 77.0 °F 63% 30.05 in 10.0 mi SW 3.5 mph - N/A   Scattered Clouds
3:15 PM 93.2 °F 107.2 °F 77.0 °F 59% 30.03 in 10.0 mi Calm Calm - N/A   Scattered Clouds
3:35 PM 91.4 °F 100.1 °F 73.4 °F 55% 30.03 in 10.0 mi NNW 5.8 mph - N/A   Mostly Cloudy
3:55 PM 91.4 °F 102.5 °F 75.2 °F 59% 30.02 in 10.0 mi Calm Calm - N/A   Mostly Cloudy
4:15 PM 95.0 °F 104.5 °F 73.4 °F 49% 30.01 in 10.0 mi NNW 9.2 mph - N/A   Scattered Clouds
4:35 PM 87.8 °F 95.6 °F 73.4 °F 62% 30.01 in 10.0 mi NNW 8.1 mph - N/A   Scattered Clouds
4:55 PM 82.4 °F 87.2 °F 71.6 °F 70% 30.02 in 7.0 mi West 12.7 mph 23.0 mph N/A Rain , Thunderstorm Thunderstorms and Rain
5:15 PM 78.8 °F - 71.6 °F 78% 30.01 in 5.0 mi West 4.6 mph 20.7 mph N/A Rain Heavy Rain
5:35 PM 77.0 °F - 77.0 °F 100% 30.00 in 10.0 mi Calm Calm - N/A Rain Light Rain
5:55 PM 78.8 °F - 78.8 °F 100% 30.00 in 10.0 mi Calm Calm - N/A   Clear
6:15 PM 78.8 °F - 78.8 °F 100% 30.00 in 10.0 mi Calm Calm - N/A   Clear
6:35 PM 80.6 °F 88.1 °F 78.8 °F 94% 30.00 in 10.0 mi Calm Calm - N/A Thunderstorm Clear
6:55 PM 82.4 °F 92.4 °F 78.8 °F 89% 30.00 in 10.0 mi Calm Calm - N/A   Clear
7:15 PM 82.4 °F 92.4 °F 78.8 °F 89% 30.00 in 10.0 mi Calm Calm - N/A   Clear
7:35 PM 82.4 °F 94.0 °F 80.6 °F 94% 30.00 in 10.0 mi Calm Calm - N/A   Clear
7:55 PM 80.6 °F 89.3 °F 80.6 °F 100% 30.00 in 10.0 mi Calm Calm - N/A   Clear
8:15 PM 80.6 °F 88.1 °F 78.8 °F 94% 30.01 in 10.0 mi South 3.5 mph - N/A Thunderstorm Clear
8:35 PM 80.6 °F 87.1 °F 77.0 °F 89% 30.01 in 10.0 mi WSW 3.5 mph - N/A   Clear
8:55 PM 80.6 °F 87.1 °F 77.0 °F 89% 30.02 in 10.0 mi Calm Calm - N/A   Scattered Clouds
9:15 PM 78.8 °F - 77.0 °F 94% 30.01 in 10.0 mi SSE 3.5 mph - N/A   Clear
9:35 PM 78.8 °F - 77.0 °F 94% 30.03 in 10.0 mi SSW 3.5 mph - N/A   Scattered Clouds
9:55 PM 78.8 °F - 77.0 °F 94% 30.03 in 10.0 mi SW 6.9 mph - N/A Thunderstorm Scattered Clouds
10:15 PM 78.8 °F - 73.4 °F 83% 30.03 in 10.0 mi Calm Calm - N/A Thunderstorm Scattered Clouds
10:35 PM 78.8 °F - 73.4 °F 83% 30.05 in 10.0 mi North 6.9 mph - N/A Thunderstorm Mostly Cloudy
10:55 PM 78.8 °F - 73.4 °F 83% 30.05 in 10.0 mi NE 3.5 mph - N/A Thunderstorm Thunderstorm
11:15 PM 77.0 °F - 73.4 °F 89% 30.04 in 10.0 mi Calm Calm - N/A Thunderstorm Thunderstorm
11:35 PM 77.0 °F - 73.4 °F 89% 30.03 in 10.0 mi SSE 4.6 mph - N/A Thunderstorm Mostly Cloudy
11:55 PM 78.8 °F - 73.4 °F 83% 30.04 in 10.0 mi Calm Calm - N/A Thunderstorm Mostly Cloudy